Погода в Родине

Россия / Псковская область     57°49′54″N   28°15′16″E
темп.,
°C
ветер,
м/с
пор.,
м/с
влажн.,
%
обл.,
%
осадки,
мм/ч
давл.,
гПа
погр.,
м
13 мая, чт
чт1300:00+13св22746 0.0 101623
03:00+14св28765 0.0 1013225
06:00+13в5128714 0.0 1012497
09:00+15юв696736 0.0 10121279
12:00+17юв69504 0.0 10131660
15:00+18юв7947100 0.0 10122294
18:00+17в475254 0.0 10101732
21:00+13вюв5107777 0.3 1010766
14 мая, пт
пт1400:00+10вюв3894100 0.4 1010373
03:00+7вюв399814 0.4 1009236
06:00+7в3896100 0.0 1009246
09:00+10вюв51185100 0.1 1008682
12:00+10вюв51294100 0.6 1008837
15:00+13юв61286100 1.2 10071016
18:00+13юв5128985 0.4 1007756
21:00+13юв399055 0.5 1007431
15 мая, сб
сб1500:00+11в389684 0.0 1006192
03:00+10юв229678 0.0 100617
06:00+10юв1196100 0.0 100520
09:00+15ююв118194 0.0 1005306
12:00+19юв1165100 0.3 10041058
15:00+20ссз1162100 1.1 10041080
18:00+17сз348282 1.9 1004559
21:00+13сз41093100 4.6 1005375
16 мая, вс
вс1600:00+10зсз4108978 0.0 1006269
03:00+8зсз399458 0.0 1007225
06:00+8зсз379386 0.0 1008217
09:00+12зсз347899 0.0 1010518
12:00+17зсз245425 0.0 10101210
15:00+19зсз13468 0.0 10101625
18:00+18юз135999 0.0 1010359
21:00+13зюз11765 0.0 101111
17 мая, пн
пн1700:00+12вюв228198 0.0 101213
03:00+10вюв358982 0.0 101277
06:00+11в3786100 0.0 1012160
09:00+16вюв4969100 0.0 1012485
12:00+20вюв5855100 0.0 10101367
15:00+20в5863100 0.0 10091246
18:00+20в61261100 0.0 10061120
21:00+19в71668100 0.1 1004939